| time (UTC) | temp C | wind direction | speed KPH | gust KPH | rain 1hr cm | rain 24hr cm | rain mn cm | humidity % | barometer mb |
| 20260831000059 | 40 | 14.5 | 25.7 | 0.00 | 0.00 | 0.00 | 19 | 946.2 | |
| 20260830234553 | 40 | 187 | 19.3 | 30.6 | 0.00 | 0.00 | 0.00 | 19 | 946.4 |
| 20260830233053 | 40 | 17.7 | 33.8 | 0.00 | 0.00 | 0.00 | 20 | 946.6 | |
| 20260830231551 | 40 | 210 | 16.1 | 32.2 | 0.00 | 0.00 | 0.00 | 20 | 946.7 |
| 20260830230049 | 40 | 16.1 | 38.6 | 0.00 | 0.00 | 0.00 | 20 | 946.9 | |
| 20260830224548 | 40 | 210 | 16.1 | 33.8 | 0.00 | 0.00 | 0.00 | 20 | 947.1 |
| 20260830223045 | 40 | 210 | 19.3 | 30.6 | 0.00 | 0.00 | 0.00 | 20 | 947.3 |
| 20260830221544 | 40 | 197 | 20.9 | 33.8 | 0.00 | 0.00 | 0.00 | 20 | 947.5 |
| 20260830220048 | 40 | 150 | 25.7 | 43.5 | 0.00 | 0.00 | 0.00 | 20 | 947.8 |
| 20260830214547 | 40 | 224 | 11.3 | 51.5 | 0.00 | 0.00 | 0.00 | 20 | 948.0 |
| 20260830213041 | 40 | 181 | 8.0 | 30.6 | 0.00 | 0.00 | 0.00 | 21 | 948.3 |
| 20260830211539 | 39 | 172 | 17.7 | 37.0 | 0.00 | 0.00 | 0.00 | 21 | 948.4 |
| 20260830210039 | 39 | 162 | 12.9 | 30.6 | 0.00 | 0.00 | 0.00 | 22 | 948.8 |
| 20260830204538 | 39 | 210 | 14.5 | 30.6 | 0.00 | 0.00 | 0.00 | 21 | 949.1 |
| 20260830203040 | 39 | 240 | 11.3 | 38.6 | 0.00 | 0.00 | 0.00 | 22 | 949.1 |
| 20260830201635 | 39 | 152 | 20.9 | 33.8 | 0.00 | 0.00 | 0.00 | 22 | 949.3 |
| 20260830200034 | 38 | 147 | 24.1 | 38.6 | 0.00 | 0.00 | 0.00 | 22 | 949.5 |
| 20260830194535 | 38 | 163 | 12.9 | 30.6 | 0.00 | 0.00 | 0.00 | 22 | 949.4 |
| 20260830193032 | 38 | 158 | 11.3 | 29.0 | 0.00 | 0.00 | 0.00 | 23 | 949.7 |
| 20260830191538 | 38 | 172 | 22.5 | 35.4 | 0.00 | 0.00 | 0.00 | 23 | 950.0 |
| 20260830190029 | 38 | 119 | 19.3 | 33.8 | 0.00 | 0.00 | 0.00 | 24 | 950.1 |
| 20260830184526 | 38 | 212 | 12.9 | 30.6 | 0.00 | 0.00 | 0.00 | 24 | 950.2 |
| 20260830183025 | 37 | 12.9 | 33.8 | 0.00 | 0.00 | 0.00 | 25 | 950.4 | |
| 20260830181523 | 37 | 204 | 24.1 | 40.2 | 0.00 | 0.00 | 0.00 | 25 | 950.6 |
| 20260830180021 | 37 | 198 | 9.7 | 24.1 | 0.00 | 0.00 | 0.00 | 26 | 950.6 |
| 20260830174518 | 37 | 207 | 11.3 | 27.4 | 0.00 | 0.00 | 0.00 | 25 | 950.7 |
| 20260830173014 | 36 | 208 | 9.7 | 22.5 | 0.00 | 0.00 | 0.00 | 26 | 950.7 |
| 20260830171513 | 36 | 191 | 14.5 | 25.7 | 0.00 | 0.00 | 0.00 | 26 | 950.7 |
| 20260830170031 | 36 | 4.8 | 22.5 | 0.00 | 0.00 | 0.00 | 27 | 950.6 | |
| 20260830164509 | 36 | 179 | 8.0 | 17.7 | 0.00 | 0.00 | 0.00 | 28 | 950.6 |
| 20260830163007 | 35 | 208 | 9.7 | 19.3 | 0.00 | 0.00 | 0.00 | 28 | 950.6 |
| 20260830161502 | 35 | 253 | 4.8 | 17.7 | 0.00 | 0.00 | 0.00 | 29 | 950.6 |
| 20260830160106 | 34 | 213 | 6.4 | 12.9 | 0.00 | 0.00 | 0.00 | 30 | 950.6 |
| 20260830154558 | 34 | 214 | 4.8 | 9.7 | 0.00 | 0.00 | 0.00 | 30 | 950.6 |
| 20260830153058 | 33 | 219 | 0.0 | 0.0 | 0.00 | 0.00 | 0.00 | 30 | 950.6 |
| 20260830151606 | 32 | 267 | 0.0 | 0.0 | 0.00 | 0.00 | 0.00 | 30 | 950.6 |
| 20260830150059 | 32 | 245 | 0.0 | 0.0 | 0.00 | 0.00 | 0.00 | 30 | 950.6 |
| 20260830144559 | 31 | 0.0 | 6.4 | 0.00 | 0.00 | 0.00 | 31 | 950.7 | |
| 20260830143053 | 32 | 0.0 | 9.7 | 0.00 | 0.00 | 0.00 | 30 | 950.5 | |
| 20260830141551 | 32 | 4.8 | 12.9 | 0.00 | 0.00 | 0.00 | 30 | 950.3 | |
| 20260830140101 | 32 | 8.0 | 16.1 | 0.00 | 0.00 | 0.00 | 29 | 950.1 | |
| 20260830134555 | 32 | 4.8 | 9.7 | 0.00 | 0.00 | 0.00 | 30 | 949.9 | |
| 20260830133047 | 31 | 6.4 | 11.3 | 0.00 | 0.00 | 0.00 | 31 | 949.6 | |
| 20260830131555 | 32 | 4.8 | 11.3 | 0.00 | 0.00 | 0.00 | 31 | 949.5 | |
| 20260830130042 | 32 | 4.8 | 12.9 | 0.00 | 0.00 | 0.00 | 31 | 949.2 | |
| 20260830124541 | 32 | 8.0 | 12.9 | 0.00 | 0.00 | 0.00 | 31 | 949.1 | |
| 20260830123042 | 32 | 8.0 | 14.5 | 0.00 | 0.00 | 0.00 | 30 | 948.9 | |
| 20260830121537 | 32 | 6.4 | 9.7 | 0.00 | 0.00 | 0.00 | 30 | 948.7 | |
| 20260830120038 | 32 | 0.0 | 9.7 | 0.00 | 0.00 | 0.00 | 30 | 948.5 | |
| 20260830114535 | 32 | 110 | 9.7 | 16.1 | 0.00 | 0.00 | 0.00 | 30 | 948.5 |
| 20260830113033 | 32 | 9.7 | 16.1 | 0.00 | 0.00 | 0.00 | 30 | 948.5 | |
| 20260830111532 | 32 | 0.0 | 4.8 | 0.00 | 0.00 | 0.00 | 30 | 948.5 | |
| 20260830110030 | 32 | 113 | 0.0 | 8.0 | 0.00 | 0.00 | 0.00 | 29 | 948.4 |
| 20260830104528 | 33 | 4.8 | 9.7 | 0.00 | 0.00 | 0.00 | 29 | 948.4 | |
| 20260830103032 | 32 | 1.6 | 11.3 | 0.00 | 0.00 | 0.00 | 29 | 948.3 | |
| 20260830101524 | 33 | 122 | 0.0 | 3.2 | 0.00 | 0.00 | 0.00 | 29 | 948.1 |
| 20260830100023 | 33 | 141 | 6.4 | 11.3 | 0.00 | 0.00 | 0.00 | 29 | 947.9 |
| 20260830094520 | 33 | 128 | 0.0 | 6.4 | 0.00 | 0.00 | 0.00 | 28 | 947.7 |
| 20260830093030 | 33 | 112 | 6.4 | 14.5 | 0.00 | 0.00 | 0.00 | 28 | 947.6 |
| 20260830091516 | 33 | 119 | 1.6 | 9.7 | 0.00 | 0.00 | 0.00 | 28 | 947.5 |
| 20260830090015 | 33 | 110 | 1.6 | 9.7 | 0.00 | 0.00 | 0.00 | 28 | 947.3 |
| 20260830084513 | 33 | 116 | 1.6 | 6.4 | 0.00 | 0.00 | 0.00 | 27 | 947.2 |
| 20260830083011 | 33 | 115 | 0.0 | 3.2 | 0.00 | 0.00 | 0.00 | 27 | 947.3 |
| 20260830081509 | 34 | 110 | 0.0 | 1.6 | 0.00 | 0.00 | 0.00 | 27 | 947.2 |
| 20260830080009 | 34 | 103 | 0.0 | 6.4 | 0.00 | 0.00 | 0.00 | 26 | 947.3 |
| 20260830074508 | 34 | 116 | 1.6 | 9.7 | 0.00 | 0.00 | 0.00 | 26 | 947.4 |
| 20260830073007 | 34 | 116 | 0.0 | 9.7 | 0.00 | 0.00 | 0.00 | 26 | 947.4 |
| 20260830071502 | 35 | 107 | 0.0 | 0.0 | 0.00 | 0.00 | 0.00 | 25 | 947.5 |
| 20260830070100 | 35 | 87 | 0.0 | 12.9 | 0.00 | 0.00 | 0.00 | 25 | 947.5 |
| 20260830064609 | 35 | 80 | 0.0 | 6.4 | 0.00 | 0.00 | 0.00 | 25 | 947.5 |
| 20260830063059 | 36 | 83 | 0.0 | 4.8 | 0.00 | 0.00 | 0.00 | 24 | 947.4 |
| 20260830061558 | 36 | 79 | 0.0 | 1.6 | 0.00 | 0.00 | 0.00 | 23 | 947.4 |
| 20260830060101 | 37 | 74 | 0.0 | 8.0 | 0.00 | 0.00 | 0.00 | 23 | 947.3 |
| 20260830054557 | 37 | 27 | 3.2 | 11.3 | 0.00 | 0.00 | 0.00 | 23 | 947.3 |
| 20260830053057 | 37 | 206 | 6.4 | 12.9 | 0.00 | 0.00 | 0.00 | 22 | 947.1 |
| 20260830051557 | 38 | 243 | 3.2 | 9.7 | 0.00 | 0.00 | 0.00 | 22 | 946.9 |
| 20260830050056 | 38 | 207 | 6.4 | 14.5 | 0.00 | 0.00 | 0.00 | 22 | 946.9 |
| 20260830044604 | 38 | 178 | 8.0 | 14.5 | 0.00 | 0.00 | 0.00 | 21 | 946.8 |
| 20260830043055 | 38 | 179 | 9.7 | 19.3 | 0.00 | 0.00 | 0.00 | 21 | 946.6 |
| 20260830041556 | 39 | 173 | 11.3 | 20.9 | 0.00 | 0.00 | 0.00 | 21 | 946.5 |
| 20260830040057 | 39 | 147 | 9.7 | 17.7 | 0.00 | 0.00 | 0.00 | 20 | 946.3 |
| 20260830034553 | 40 | 193 | 11.3 | 19.3 | 0.00 | 0.00 | 0.00 | 19 | 946.1 |
| 20260830033053 | 40 | 131 | 12.9 | 20.9 | 0.00 | 0.00 | 0.00 | 19 | 945.9 |
| 20260830031551 | 40 | 206 | 8.0 | 17.7 | 0.00 | 0.00 | 0.00 | 18 | 945.7 |
| 20260830030051 | 40 | 11.3 | 25.7 | 0.00 | 0.00 | 0.00 | 18 | 945.4 | |
| 20260830024552 | 40 | 209 | 8.0 | 22.5 | 0.00 | 0.00 | 0.00 | 18 | 945.3 |
| 20260830023050 | 41 | 158 | 6.4 | 17.7 | 0.00 | 0.00 | 0.00 | 17 | 945.2 |
| 20260830021550 | 41 | 211 | 4.8 | 16.1 | 0.00 | 0.00 | 0.00 | 18 | 945.2 |
| 20260830020047 | 41 | 9.7 | 16.1 | 0.00 | 0.00 | 0.00 | 18 | 945.2 | |
| 20260830014546 | 41 | 226 | 12.9 | 19.3 | 0.00 | 0.00 | 0.00 | 17 | 945.3 |
| 20260830013045 | 41 | 11.3 | 25.7 | 0.00 | 0.00 | 0.00 | 17 | 945.3 | |
| 20260830011545 | 42 | 233 | 16.1 | 25.7 | 0.00 | 0.00 | 0.00 | 17 | 945.4 |
| 20260830010046 | 42 | 220 | 14.5 | 33.8 | 0.00 | 0.00 | 0.00 | 17 | 945.3 |
| 20260830004544 | 42 | 192 | 17.7 | 25.7 | 0.00 | 0.00 | 0.00 | 17 | 945.4 |
| 20260830003043 | 42 | 20.9 | 30.6 | 0.00 | 0.00 | 0.00 | 17 | 945.4 | |
| 20260830001551 | 43 | 179 | 14.5 | 25.7 | 0.00 | 0.00 | 0.00 | 17 | 945.5 |